This is the latest recevied weather packets stored in our database for station/object N4JTC. If no packets are shown the sender has not sent any weather packets the latest 10 day(s).
| Time | Temp. | Humidity | Pressure | Rain* | Wind** | Luminosity | Snow |
|---|---|---|---|---|---|---|---|
| 1777919102 | 26.67° C | 40% | 1017.4 hPa | 0 mm | - | 781 W/m² | - |
| 1777918803 | 26.67° C | 39% | 1017.5 hPa | 0 mm | - | 789 W/m² | - |
| 1777918503 | 26.67° C | 38% | 1017.4 hPa | 0 mm | - | 793 W/m² | - |
| 1777918203 | 26.67° C | 38% | 1017.7 hPa | 0 mm | - | 784 W/m² | - |
| 1777917903 | 26.67° C | 39% | 1017.6 hPa | 0 mm | - | 767 W/m² | - |
| 1777917603 | 26.67° C | 40% | 1017.6 hPa | 0 mm | - | 788 W/m² | - |
| 1777917302 | 26.11° C | 38% | 1017.8 hPa | 0 mm | - | 792 W/m² | - |
| 1777917003 | 26.11° C | 38% | 1017.8 hPa | 0 mm | - | 790 W/m² | - |
| 1777916703 | 26.67° C | 37% | 1017.8 hPa | 0 mm | - | 796 W/m² | - |
| 1777916103 | 26.67° C | 38% | 1017.7 hPa | 0 mm | - | 796 W/m² | - |
| 1777915803 | 26.67° C | 37% | 1017.9 hPa | 0 mm | - | 794 W/m² | - |
| 1777915503 | 26.11° C | 38% | 1018 hPa | 0 mm | - | 798 W/m² | - |
| 1777915203 | 26.67° C | 39% | 1018 hPa | 0 mm | - | 804 W/m² | - |
| 1777914903 | 26.11° C | 40% | 1018.3 hPa | 0 mm | - | 812 W/m² | - |
| 1777914303 | 25.56° C | 37% | 1018.2 hPa | 0 mm | - | 816 W/m² | - |
| 1777913703 | 26.11° C | 38% | 1018.4 hPa | 0 mm | - | 817 W/m² | - |
| 1777913403 | 25.56° C | 40% | 1018.4 hPa | 0 mm | - | 827 W/m² | - |
| 1777913103 | 25.56° C | 37% | 1018.5 hPa | 0 mm | - | 828 W/m² | - |
| 1777912804 | 26.11° C | 38% | 1018.9 hPa | 0 mm | - | 819 W/m² | - |
| 1777912502 | 25.56° C | 37% | 1018.8 hPa | 0 mm | - | 848 W/m² | - |
| 1777912203 | 25.56° C | 40% | 1018.9 hPa | 0 mm | - | 852 W/m² | - |
| 1777911903 | 25.56° C | 40% | 1018.9 hPa | 0 mm | - | 852 W/m² | - |
| 1777911603 | 25.56° C | 40% | 1018.9 hPa | 0 mm | - | 843 W/m² | - |
| 1777911303 | 25.56° C | 40% | 1019.2 hPa | 0 mm | - | 894 W/m² | - |
| 1777911003 | 25.56° C | 37% | 1019.1 hPa | 0 mm | - | 908 W/m² | - |
* Rain latest hour (hover to see other rain measurements)
** Current wind speed in m/s (hover to see current wind gust speed)